Location: Kiltepe
(36.4752°N, 30.0120°E)
Time: 15:36:31
(UTC+00:00)

Lacrosse 5 - Pass Details

Date: 03 August 2024
Orbit: 714 x 724 km, 57.0° (Epoch: 09 March)

Event Time Altitude Azimuth Distance (km) Brightness Sun altitude
Rises 19:59:29 0° 315° (NW) 3,119 6.4 -28.6°
Reaches altitude 10° 20:01:53 10° 312° (NW) 2,197 5.3 -28.8°
Enters shadow 20:05:49 49° 281° (WNW) 922 2.5 -29.3°
